Year,Month,Day,Hour,Minute,Value (Times are PST for temperature in C)
2016,08,19,00,00,19.70
2016,08,19,00,01,19.70
2016,08,19,00,02,19.70
2016,08,19,00,03,19.70
2016,08,19,00,04,19.60
2016,08,19,00,05,19.60
2016,08,19,00,06,19.60
2016,08,19,00,07,19.60
2016,08,19,00,08,19.60
2016,08,19,00,09,19.60
2016,08,19,00,10,19.50
2016,08,19,00,11,19.50
2016,08,19,00,12,19.50
2016,08,19,00,13,19.50
2016,08,19,00,14,19.40
2016,08,19,00,15,19.40
2016,08,19,00,16,19.40
2016,08,19,00,17,19.40
2016,08,19,00,18,19.40
2016,08,19,00,19,19.40
2016,08,19,00,20,19.40
2016,08,19,00,21,19.40
2016,08,19,00,22,19.40
2016,08,19,00,23,19.40
2016,08,19,00,24,19.40
2016,08,19,00,25,19.30
2016,08,19,00,26,19.30
2016,08,19,00,27,19.30
2016,08,19,00,28,19.30
2016,08,19,00,29,19.30
2016,08,19,00,30,19.30
2016,08,19,00,31,19.30
2016,08,19,00,32,19.20
2016,08,19,00,33,19.20
2016,08,19,00,34,19.20
2016,08,19,00,35,19.20
2016,08,19,00,36,19.20
2016,08,19,00,37,19.20
2016,08,19,00,38,19.20
2016,08,19,00,39,19.10
2016,08,19,00,40,19.10
2016,08,19,00,41,19.10
2016,08,19,00,42,19.10
2016,08,19,00,43,19.10
2016,08,19,00,44,19.10
2016,08,19,00,45,19.00
2016,08,19,00,46,19.00
2016,08,19,00,47,19.00
2016,08,19,00,48,19.00
2016,08,19,00,49,19.00
2016,08,19,00,50,18.90
2016,08,19,00,51,18.90
2016,08,19,00,52,18.90
2016,08,19,00,53,18.90
2016,08,19,00,54,18.90
2016,08,19,00,55,18.90
2016,08,19,00,56,18.90
2016,08,19,00,57,18.90
2016,08,19,00,58,18.80
2016,08,19,00,59,18.80
2016,08,19,01,00,18.80
2016,08,19,01,01,18.90
2016,08,19,01,02,18.80
2016,08,19,01,03,18.80
2016,08,19,01,04,18.80
2016,08,19,01,05,18.80
2016,08,19,01,06,18.80
2016,08,19,01,07,18.80
2016,08,19,01,08,18.90
2016,08,19,01,09,18.80
2016,08,19,01,10,18.80
2016,08,19,01,11,18.80
2016,08,19,01,12,18.80
2016,08,19,01,13,18.80
2016,08,19,01,14,18.80
2016,08,19,01,15,18.80
2016,08,19,01,16,18.80
2016,08,19,01,17,18.90
2016,08,19,01,18,18.80
2016,08,19,01,19,18.90
2016,08,19,01,20,18.90
2016,08,19,01,21,18.80
2016,08,19,01,22,18.80
2016,08,19,01,23,18.90
2016,08,19,01,24,18.80
2016,08,19,01,25,18.80
2016,08,19,01,26,18.80
2016,08,19,01,27,18.80
2016,08,19,01,28,18.80
2016,08,19,01,29,18.80
2016,08,19,01,30,18.80
2016,08,19,01,31,18.80
2016,08,19,01,32,18.70
2016,08,19,01,33,18.70
2016,08,19,01,34,18.70
2016,08,19,01,35,18.60
2016,08,19,01,36,18.60
2016,08,19,01,37,18.60
2016,08,19,01,38,18.50
2016,08,19,01,39,18.50
2016,08,19,01,40,18.50
2016,08,19,01,41,18.40
2016,08,19,01,42,18.40
2016,08,19,01,43,18.40
2016,08,19,01,44,18.30
2016,08,19,01,45,18.30
2016,08,19,01,46,18.30
2016,08,19,01,47,18.30
2016,08,19,01,48,18.20
2016,08,19,01,49,18.20
2016,08,19,01,50,18.20
2016,08,19,01,51,18.10
2016,08,19,01,52,18.10
2016,08,19,01,53,18.10
2016,08,19,01,54,18.10
2016,08,19,01,55,18.00
2016,08,19,01,56,18.00
2016,08,19,01,57,17.90
2016,08,19,01,58,17.90
2016,08,19,01,59,17.90
2016,08,19,02,00,17.90
2016,08,19,02,01,17.90
2016,08,19,02,02,17.80
2016,08,19,02,03,17.80
2016,08,19,02,04,17.80
2016,08,19,02,05,17.80
2016,08,19,02,06,17.80
2016,08,19,02,07,17.70
2016,08,19,02,08,17.70
2016,08,19,02,09,17.70
2016,08,19,02,10,17.70
2016,08,19,02,11,17.60
2016,08,19,02,12,17.60
2016,08,19,02,13,17.60
2016,08,19,02,14,17.60
2016,08,19,02,15,17.50
2016,08,19,02,16,17.50
2016,08,19,02,17,17.50
2016,08,19,02,18,17.60
2016,08,19,02,19,17.50
2016,08,19,02,20,17.50
2016,08,19,02,21,17.50
2016,08,19,02,22,17.50
2016,08,19,02,23,17.50
2016,08,19,02,24,17.50
2016,08,19,02,25,17.40
2016,08,19,02,26,17.40
2016,08,19,02,27,17.40
2016,08,19,02,28,17.40
2016,08,19,02,29,17.40
2016,08,19,02,30,17.40
2016,08,19,02,31,17.40
2016,08,19,02,32,17.40
2016,08,19,02,33,17.30
2016,08,19,02,34,17.30
2016,08,19,02,35,17.30
2016,08,19,02,36,17.30
2016,08,19,02,37,17.30
2016,08,19,02,38,17.30
2016,08,19,02,39,17.30
2016,08,19,02,40,17.30
2016,08,19,02,41,17.20
2016,08,19,02,42,17.20
2016,08,19,02,43,17.20
2016,08,19,02,44,17.20
2016,08,19,02,45,17.20
2016,08,19,02,46,17.20
2016,08,19,02,47,17.10
2016,08,19,02,48,17.10
2016,08,19,02,49,17.10
2016,08,19,02,50,17.10
2016,08,19,02,51,17.10
2016,08,19,02,52,17.10
2016,08,19,02,53,17.00
2016,08,19,02,54,17.00
2016,08,19,02,55,17.00
2016,08,19,02,56,16.90
2016,08,19,02,57,16.90
2016,08,19,02,58,16.90
2016,08,19,02,59,16.90
2016,08,19,03,00,16.80
2016,08,19,03,01,16.80
2016,08,19,03,02,16.80
2016,08,19,03,06,16.70
2016,08,19,03,07,16.70
2016,08,19,03,08,16.70
2016,08,19,03,09,16.70
2016,08,19,03,10,16.70
2016,08,19,03,11,16.70
2016,08,19,03,12,16.70
2016,08,19,03,13,16.70
2016,08,19,03,14,16.60
2016,08,19,03,15,16.60
2016,08,19,03,16,16.60
2016,08,19,03,17,16.60
2016,08,19,03,18,16.60
2016,08,19,03,19,16.60
2016,08,19,03,20,16.60
2016,08,19,03,21,16.60
2016,08,19,03,22,16.60
2016,08,19,03,23,16.50
2016,08,19,03,24,16.50
2016,08,19,03,25,16.50
2016,08,19,03,26,16.50
2016,08,19,03,27,16.40
2016,08,19,03,28,16.40
2016,08,19,03,29,16.40
2016,08,19,03,30,16.40
2016,08,19,03,31,16.40
2016,08,19,03,32,16.40
2016,08,19,03,33,16.30
2016,08,19,03,34,16.30
2016,08,19,03,35,16.30
2016,08,19,03,36,16.30
2016,08,19,03,37,16.30
2016,08,19,03,38,16.30
2016,08,19,03,39,16.20
2016,08,19,03,40,16.20
2016,08,19,03,41,16.20
2016,08,19,03,42,16.20
2016,08,19,03,43,16.20
2016,08,19,03,44,16.20
2016,08,19,03,45,16.10
2016,08,19,03,46,16.10
2016,08,19,03,47,16.10
2016,08,19,03,48,16.10
2016,08,19,03,49,16.10
2016,08,19,03,50,16.10
2016,08,19,03,51,16.10
2016,08,19,03,52,16.10
2016,08,19,03,53,16.10
2016,08,19,03,54,16.10
2016,08,19,03,55,16.10
2016,08,19,03,56,16.10
2016,08,19,03,57,16.10
2016,08,19,03,58,16.10
2016,08,19,03,59,16.10
2016,08,19,04,00,16.10
2016,08,19,04,01,16.10
2016,08,19,04,02,16.00
2016,08,19,04,03,16.00
2016,08,19,04,04,16.00
2016,08,19,04,05,16.00
2016,08,19,04,06,15.90
2016,08,19,04,07,15.90
2016,08,19,04,08,15.90
2016,08,19,04,09,15.90
2016,08,19,04,10,15.90
2016,08,19,04,11,15.80
2016,08,19,04,12,15.80
2016,08,19,04,13,15.80
2016,08,19,04,14,15.80
2016,08,19,04,15,15.80
2016,08,19,04,16,15.80
2016,08,19,04,17,15.80
2016,08,19,04,18,15.80
2016,08,19,04,19,15.80
2016,08,19,04,20,15.80
2016,08,19,04,21,15.80
2016,08,19,04,22,15.80
2016,08,19,04,23,15.80
2016,08,19,04,24,15.80
2016,08,19,04,25,15.80
2016,08,19,04,26,15.80
2016,08,19,04,27,15.80
2016,08,19,04,28,15.80
2016,08,19,04,29,15.80
2016,08,19,04,30,15.80
2016,08,19,04,31,15.80
2016,08,19,04,32,15.90
2016,08,19,04,33,15.90
2016,08,19,04,34,15.90
2016,08,19,04,35,15.90
2016,08,19,04,36,15.90
2016,08,19,04,37,15.90
2016,08,19,04,38,15.90
2016,08,19,04,39,15.90
2016,08,19,04,40,15.90
2016,08,19,04,41,15.90
2016,08,19,04,42,15.90
2016,08,19,04,43,15.90
2016,08,19,04,44,15.90
2016,08,19,04,45,15.90
2016,08,19,04,46,15.90
2016,08,19,04,47,15.90
2016,08,19,04,48,15.90
2016,08,19,04,49,15.90
2016,08,19,04,50,15.90
2016,08,19,04,51,15.80
2016,08,19,04,52,15.80
2016,08,19,04,53,15.80
2016,08,19,04,54,15.80
2016,08,19,04,55,15.80
2016,08,19,04,56,15.70
2016,08,19,04,57,15.70
2016,08,19,04,58,15.70
2016,08,19,04,59,15.60
2016,08,19,05,00,15.60
2016,08,19,05,01,15.60
2016,08,19,05,02,15.60
2016,08,19,05,03,15.50
2016,08,19,05,04,15.50
2016,08,19,05,05,15.40
2016,08,19,05,06,15.40
2016,08,19,05,07,15.40
2016,08,19,05,08,15.40
2016,08,19,05,09,15.40
2016,08,19,05,10,15.40
2016,08,19,05,11,15.30
2016,08,19,05,12,15.30
2016,08,19,05,13,15.30
2016,08,19,05,14,15.30
2016,08,19,05,15,15.30
2016,08,19,05,16,15.30
2016,08,19,05,17,15.30
2016,08,19,05,18,15.30
2016,08,19,05,19,15.20
2016,08,19,05,20,15.20
2016,08,19,05,21,15.20
2016,08,19,05,22,15.20
2016,08,19,05,23,15.20
2016,08,19,05,24,15.20
2016,08,19,05,25,15.20
2016,08,19,05,26,15.10
2016,08,19,05,27,15.10
2016,08,19,05,28,15.10
2016,08,19,05,29,15.10
2016,08,19,05,30,15.10
2016,08,19,05,31,15.10
2016,08,19,05,32,15.00
2016,08,19,05,33,15.00
2016,08,19,05,34,15.00
2016,08,19,05,35,15.00
2016,08,19,05,36,15.00
2016,08,19,05,37,15.00
2016,08,19,05,38,15.00
2016,08,19,05,39,15.00
2016,08,19,05,40,15.00
2016,08,19,05,41,15.00
2016,08,19,05,42,15.00
2016,08,19,05,43,15.00
2016,08,19,05,44,15.00
2016,08,19,05,45,15.00
2016,08,19,05,46,15.00
2016,08,19,05,47,15.00
2016,08,19,05,48,15.00
2016,08,19,05,49,15.00
2016,08,19,05,50,15.00
2016,08,19,05,51,15.00
2016,08,19,05,52,15.00
2016,08,19,05,53,15.00
2016,08,19,05,54,15.00
2016,08,19,05,55,14.90
2016,08,19,05,56,14.90
2016,08,19,05,57,14.90
2016,08,19,05,58,14.80
2016,08,19,05,59,14.80
2016,08,19,06,00,14.80
2016,08,19,06,01,14.70
2016,08,19,06,02,14.70
2016,08,19,06,03,14.70
2016,08,19,06,04,14.70
2016,08,19,06,05,14.60
2016,08,19,06,06,14.60
2016,08,19,06,07,14.60
2016,08,19,06,08,14.60
2016,08,19,06,09,14.60
2016,08,19,06,10,14.60
2016,08,19,06,11,14.60
2016,08,19,06,12,14.50
2016,08,19,06,13,14.50
2016,08,19,06,14,14.50
2016,08,19,06,15,14.50
2016,08,19,06,16,14.50
2016,08,19,06,17,14.40
2016,08,19,06,18,14.40
2016,08,19,06,19,14.40
2016,08,19,06,20,14.40
2016,08,19,06,21,14.40
2016,08,19,06,22,14.40
2016,08,19,06,23,14.30
2016,08,19,06,24,14.30
2016,08,19,06,25,14.30
2016,08,19,06,26,14.30
2016,08,19,06,27,14.30
2016,08,19,06,28,14.30
2016,08,19,06,29,14.30
2016,08,19,06,30,14.30
2016,08,19,06,31,14.20
2016,08,19,06,32,14.20
2016,08,19,06,33,14.20
2016,08,19,06,34,14.20
2016,08,19,06,35,14.20
2016,08,19,06,36,14.20
2016,08,19,06,37,14.20
2016,08,19,06,38,14.20
2016,08,19,06,39,14.20
2016,08,19,06,40,14.20
2016,08,19,06,41,14.20
2016,08,19,06,42,14.20
2016,08,19,06,43,14.20
2016,08,19,06,44,14.20
2016,08,19,06,45,14.20
2016,08,19,06,46,14.20
2016,08,19,06,47,14.20
2016,08,19,06,48,14.20
2016,08,19,06,49,14.20
2016,08,19,06,50,14.20
2016,08,19,06,51,14.10
2016,08,19,06,52,14.20
2016,08,19,06,53,14.20
2016,08,19,06,54,14.20
2016,08,19,06,55,14.20
2016,08,19,06,56,14.20
2016,08,19,06,57,14.20
2016,08,19,06,58,14.20
2016,08,19,06,59,14.20
2016,08,19,07,00,14.20
2016,08,19,07,01,14.20
2016,08,19,07,02,14.20
2016,08,19,07,03,14.20
2016,08,19,07,04,14.20
2016,08,19,07,05,14.20
2016,08,19,07,06,14.20
2016,08,19,07,07,14.20
2016,08,19,07,08,14.20
2016,08,19,07,09,14.20
2016,08,19,07,10,14.20
2016,08,19,07,11,14.20
2016,08,19,07,12,14.20
2016,08,19,07,13,14.20
2016,08,19,07,14,14.20
2016,08,19,07,15,14.20
2016,08,19,07,16,14.20
2016,08,19,07,17,14.30
2016,08,19,07,18,14.30
2016,08,19,07,19,14.30
2016,08,19,07,20,14.30
2016,08,19,07,21,14.30
2016,08,19,07,22,14.30
2016,08,19,07,23,14.30
2016,08,19,07,24,14.30
2016,08,19,07,25,14.40
2016,08,19,07,26,14.40
2016,08,19,07,27,14.40
2016,08,19,07,28,14.40
2016,08,19,07,29,14.40
2016,08,19,07,30,14.40
2016,08,19,07,31,14.50
2016,08,19,07,32,14.50
2016,08,19,07,33,14.50
2016,08,19,07,34,14.50
2016,08,19,07,35,14.50
2016,08,19,07,36,14.50
2016,08,19,07,37,14.60
2016,08,19,07,38,14.60
2016,08,19,07,39,14.60
2016,08,19,07,40,14.60
2016,08,19,07,41,14.60
2016,08,19,07,42,14.70
2016,08,19,07,43,14.70
2016,08,19,07,44,14.70
2016,08,19,07,45,14.70
2016,08,19,07,46,14.80
2016,08,19,07,47,14.90
2016,08,19,07,48,15.00
2016,08,19,07,49,15.00
2016,08,19,07,50,15.00
2016,08,19,07,51,15.00
2016,08,19,07,52,15.00
2016,08,19,07,53,15.00
2016,08,19,07,54,15.00
2016,08,19,07,55,15.00
2016,08,19,07,56,15.00
2016,08,19,07,57,15.00
2016,08,19,07,58,15.10
2016,08,19,07,59,15.20
2016,08,19,08,00,15.30
2016,08,19,08,01,15.40
2016,08,19,08,02,15.50
2016,08,19,08,03,15.60
2016,08,19,08,04,15.70
2016,08,19,08,05,15.90
2016,08,19,08,06,16.00
2016,08,19,08,07,16.20
2016,08,19,08,08,16.30
2016,08,19,08,09,16.50
2016,08,19,08,10,16.60
2016,08,19,08,11,16.80
2016,08,19,08,12,17.00
2016,08,19,08,13,17.10
2016,08,19,08,14,17.20
2016,08,19,08,15,17.40
2016,08,19,08,16,17.50
2016,08,19,08,17,17.60
2016,08,19,08,18,17.80
2016,08,19,08,19,17.90
2016,08,19,08,20,18.10
2016,08,19,08,21,18.20
2016,08,19,08,22,18.40
2016,08,19,08,23,18.50
2016,08,19,08,24,18.60
2016,08,19,08,25,18.80
2016,08,19,08,26,18.90
2016,08,19,08,27,19.10
2016,08,19,08,28,19.20
2016,08,19,08,29,19.30
2016,08,19,08,30,19.50
2016,08,19,08,31,19.60
2016,08,19,08,32,19.70
2016,08,19,08,33,19.80
2016,08,19,08,34,19.90
2016,08,19,08,35,20.00
2016,08,19,08,36,20.00
2016,08,19,08,37,20.10
2016,08,19,08,38,20.20
2016,08,19,08,39,20.30
2016,08,19,08,40,20.40
2016,08,19,08,41,20.50
2016,08,19,08,42,20.50
2016,08,19,08,43,20.70
2016,08,19,08,44,20.70
2016,08,19,08,45,20.90
2016,08,19,08,46,21.00
2016,08,19,08,47,21.10
2016,08,19,08,48,21.20
2016,08,19,08,49,21.30
2016,08,19,08,50,21.30
2016,08,19,08,51,21.40
2016,08,19,08,52,21.60
2016,08,19,08,53,21.70
2016,08,19,08,54,21.80
2016,08,19,08,55,21.80
2016,08,19,08,56,21.90
2016,08,19,08,57,22.00
2016,08,19,08,58,22.10
2016,08,19,08,59,22.10
2016,08,19,09,00,22.20
2016,08,19,09,01,22.30
2016,08,19,09,02,22.40
2016,08,19,09,03,22.50
2016,08,19,09,04,22.60
2016,08,19,09,05,22.60
2016,08,19,09,06,22.70
2016,08,19,09,07,22.70
2016,08,19,09,08,22.80
2016,08,19,09,09,22.80
2016,08,19,09,10,22.80
2016,08,19,09,11,23.00
2016,08,19,09,12,23.10
2016,08,19,09,13,23.10
2016,08,19,09,14,23.20
2016,08,19,09,15,23.40
2016,08,19,09,16,23.40
2016,08,19,09,17,23.40
2016,08,19,09,18,23.50
2016,08,19,09,19,23.60
2016,08,19,09,20,23.80
2016,08,19,09,21,24.00
2016,08,19,09,22,24.10
2016,08,19,09,23,24.30
2016,08,19,09,24,24.50
2016,08,19,09,25,24.70
2016,08,19,09,26,24.90
2016,08,19,09,27,25.10
2016,08,19,09,28,25.30
2016,08,19,09,29,25.40
2016,08,19,09,30,25.50
2016,08,19,09,31,25.60
2016,08,19,09,32,25.70
2016,08,19,09,33,25.80
2016,08,19,09,34,25.90
2016,08,19,09,35,25.90
2016,08,19,09,36,26.00
2016,08,19,09,37,26.10
2016,08,19,09,38,26.10
2016,08,19,09,39,26.20
2016,08,19,09,40,26.30
2016,08,19,09,41,26.30
2016,08,19,09,42,26.40
2016,08,19,09,43,26.40
2016,08,19,09,44,26.50
2016,08,19,09,45,26.60
2016,08,19,09,46,26.60
2016,08,19,09,47,26.70
2016,08,19,09,48,26.70
2016,08,19,09,49,26.70
2016,08,19,09,50,26.80
2016,08,19,09,51,26.80
2016,08,19,09,52,26.80
2016,08,19,09,53,26.90
2016,08,19,09,54,26.90
2016,08,19,09,55,26.90
2016,08,19,09,56,27.00
2016,08,19,09,57,27.00
2016,08,19,09,58,27.10
2016,08,19,09,59,27.10
2016,08,19,10,00,27.10
2016,08,19,10,01,27.20
2016,08,19,10,02,27.20
2016,08,19,10,03,27.20
2016,08,19,10,04,27.30
2016,08,19,10,05,27.30
2016,08,19,10,06,27.40
2016,08,19,10,07,27.40
2016,08,19,10,08,27.50
2016,08,19,10,09,27.50
2016,08,19,10,10,27.60
2016,08,19,10,11,27.60
2016,08,19,10,12,27.60
2016,08,19,10,13,27.60
2016,08,19,10,14,27.70
2016,08,19,10,15,27.70
2016,08,19,10,16,27.70
2016,08,19,10,17,27.80
2016,08,19,10,18,27.80
2016,08,19,10,19,27.80
2016,08,19,10,20,27.80
2016,08,19,10,21,27.80
2016,08,19,10,22,27.80
2016,08,19,10,23,27.90
2016,08,19,10,24,27.90
2016,08,19,10,25,28.00
2016,08,19,10,26,28.00
2016,08,19,10,27,28.10
2016,08,19,10,28,28.20
2016,08,19,10,29,28.20
2016,08,19,10,30,28.20
2016,08,19,10,31,28.30
2016,08,19,10,32,28.30
2016,08,19,10,33,28.30
2016,08,19,10,34,28.30
2016,08,19,10,35,28.30
2016,08,19,10,36,28.30
2016,08,19,10,37,28.30
2016,08,19,10,38,28.30
2016,08,19,10,39,28.30
2016,08,19,10,40,28.30
2016,08,19,10,41,28.20
2016,08,19,10,42,28.20
2016,08,19,10,43,28.30
2016,08,19,10,44,28.30
2016,08,19,10,45,28.30
2016,08,19,10,46,28.40
2016,08,19,10,47,28.40
2016,08,19,10,48,28.50
2016,08,19,10,49,28.50
2016,08,19,10,50,28.60
2016,08,19,10,51,28.70
2016,08,19,10,52,28.70
2016,08,19,10,53,28.70
2016,08,19,10,54,28.80
2016,08,19,10,55,28.80
2016,08,19,10,56,28.90
2016,08,19,10,57,28.90
2016,08,19,10,58,28.90
2016,08,19,10,59,29.00
2016,08,19,11,00,29.10
2016,08,19,11,01,29.10
2016,08,19,11,02,29.20
2016,08,19,11,03,29.20
2016,08,19,11,04,29.30
2016,08,19,11,05,29.30
2016,08,19,11,06,29.40
2016,08,19,11,07,29.40
2016,08,19,11,08,29.40
2016,08,19,11,09,29.50
2016,08,19,11,10,29.50
2016,08,19,11,11,29.60
2016,08,19,11,12,29.60
2016,08,19,11,13,29.70
2016,08,19,11,14,29.70
2016,08,19,11,15,29.80
2016,08,19,11,16,29.80
2016,08,19,11,17,29.80
2016,08,19,11,18,29.90
2016,08,19,11,19,29.90
2016,08,19,11,20,29.90
2016,08,19,11,21,29.90
2016,08,19,11,22,29.90
2016,08,19,11,23,29.90
2016,08,19,11,24,29.90
2016,08,19,11,25,29.90
2016,08,19,11,26,30.00
2016,08,19,11,27,30.00
2016,08,19,11,28,30.10
2016,08,19,11,29,30.20
2016,08,19,11,30,30.20
2016,08,19,11,31,30.30
2016,08,19,11,32,30.30
2016,08,19,11,33,30.40
2016,08,19,11,34,30.40
2016,08,19,11,35,30.30
2016,08,19,11,36,30.30
2016,08,19,11,37,30.30
2016,08,19,11,38,30.20
2016,08,19,11,39,30.20
2016,08,19,11,40,30.20
2016,08,19,11,41,30.20
2016,08,19,11,42,30.30
2016,08,19,11,43,30.30
2016,08,19,11,44,30.30
2016,08,19,11,45,30.40
2016,08,19,11,46,30.40
2016,08,19,11,47,30.50
2016,08,19,11,48,30.60
2016,08,19,11,49,30.60
2016,08,19,11,50,30.60
2016,08,19,11,51,30.70
2016,08,19,11,52,30.70
2016,08,19,11,53,30.80
2016,08,19,11,54,30.80
2016,08,19,11,55,30.90
2016,08,19,11,56,30.90
2016,08,19,11,57,31.00
2016,08,19,11,58,31.00
2016,08,19,11,59,31.10
2016,08,19,12,00,31.10
2016,08,19,12,01,31.20
2016,08,19,12,02,31.20
2016,08,19,12,03,31.20
2016,08,19,12,04,31.10
2016,08,19,12,05,31.10
2016,08,19,12,06,31.10
2016,08,19,12,07,31.10
2016,08,19,12,08,31.10
2016,08,19,12,09,31.10
2016,08,19,12,10,31.10
2016,08,19,12,11,31.10
2016,08,19,12,12,31.10
2016,08,19,12,13,31.20
2016,08,19,12,14,31.20
2016,08,19,12,15,31.30
2016,08,19,12,16,31.30
2016,08,19,12,17,31.40
2016,08,19,12,18,31.40
2016,08,19,12,19,31.50
2016,08,19,12,20,31.50
2016,08,19,12,21,31.50
2016,08,19,12,22,31.50
2016,08,19,12,23,31.60
2016,08,19,12,24,31.60
2016,08,19,12,25,31.70
2016,08,19,12,26,31.70
2016,08,19,12,27,31.70
2016,08,19,12,28,31.80
2016,08,19,12,29,31.80
2016,08,19,12,30,31.80
2016,08,19,12,31,31.80
2016,08,19,12,32,31.80
2016,08,19,12,33,31.80
2016,08,19,12,34,31.80
2016,08,19,12,35,31.80
2016,08,19,12,36,31.80
2016,08,19,12,37,31.90
2016,08,19,12,38,31.90
2016,08,19,12,39,31.90
2016,08,19,12,40,31.90
2016,08,19,12,41,31.90
2016,08,19,12,42,31.90
2016,08,19,12,43,32.00
2016,08,19,12,44,32.00
2016,08,19,12,45,31.90
2016,08,19,12,46,31.90
2016,08,19,12,47,32.00
2016,08,19,12,48,32.00
2016,08,19,12,49,32.10
2016,08,19,12,50,32.10
2016,08,19,12,51,32.20
2016,08,19,12,52,32.20
2016,08,19,12,53,32.20
2016,08,19,12,54,32.20
2016,08,19,12,55,32.20
2016,08,19,12,56,32.20
2016,08,19,12,57,32.20
2016,08,19,12,58,32.20
2016,08,19,12,59,32.30
2016,08,19,13,00,32.30
2016,08,19,13,01,32.30
2016,08,19,13,02,32.40
2016,08,19,13,03,32.40
2016,08,19,13,04,32.50
2016,08,19,13,05,32.60
2016,08,19,13,06,32.60
2016,08,19,13,07,32.70
2016,08,19,13,08,32.70
2016,08,19,13,09,32.80
2016,08,19,13,10,32.80
2016,08,19,13,11,32.70
2016,08,19,13,12,32.70
2016,08,19,13,13,32.70
2016,08,19,13,14,32.80
2016,08,19,13,15,32.70
2016,08,19,13,16,32.70
2016,08,19,13,17,32.60
2016,08,19,13,18,32.60
2016,08,19,13,19,32.60
2016,08,19,13,20,32.60
2016,08,19,13,21,32.60
2016,08,19,13,22,32.60
2016,08,19,13,23,32.60
2016,08,19,13,24,32.60
2016,08,19,13,25,32.60
2016,08,19,13,26,32.60
2016,08,19,13,27,32.70
2016,08,19,13,28,32.70
2016,08,19,13,29,32.70
2016,08,19,13,30,32.70
2016,08,19,13,31,32.80
2016,08,19,13,32,32.80
2016,08,19,13,33,32.90
2016,08,19,13,34,32.90
2016,08,19,13,35,32.80
2016,08,19,13,36,32.80
2016,08,19,13,37,32.80
2016,08,19,13,38,32.80
2016,08,19,13,39,32.80
2016,08,19,13,40,32.80
2016,08,19,13,41,32.80
2016,08,19,13,42,32.80
2016,08,19,13,43,32.90
2016,08,19,13,44,32.90
2016,08,19,13,45,32.80
2016,08,19,13,46,32.80
2016,08,19,13,47,32.70
2016,08,19,13,48,32.60
2016,08,19,13,49,32.60
2016,08,19,13,50,32.70
2016,08,19,13,51,32.70
2016,08,19,13,52,32.70
2016,08,19,13,53,32.70
2016,08,19,13,54,32.80
2016,08,19,13,55,32.80
2016,08,19,13,56,32.80
2016,08,19,13,57,32.80
2016,08,19,13,58,32.80
2016,08,19,13,59,32.80
2016,08,19,14,00,32.80
2016,08,19,14,01,32.80
2016,08,19,14,02,32.90
2016,08,19,14,03,33.00
2016,08,19,14,04,33.00
2016,08,19,14,05,33.10
2016,08,19,14,06,33.00
2016,08,19,14,07,33.00
2016,08,19,14,08,32.90
2016,08,19,14,09,32.90
2016,08,19,14,10,32.90
2016,08,19,14,11,33.00
2016,08,19,14,12,32.90
2016,08,19,14,13,33.00
2016,08,19,14,14,33.00
2016,08,19,14,15,33.00
2016,08,19,14,16,33.00
2016,08,19,14,17,33.00
2016,08,19,14,18,32.90
2016,08,19,14,19,32.90
2016,08,19,14,20,33.00
2016,08,19,14,21,33.00
2016,08,19,14,22,33.10
2016,08,19,14,23,33.10
2016,08,19,14,24,33.10
2016,08,19,14,25,33.10
2016,08,19,14,26,33.10
2016,08,19,14,27,33.10
2016,08,19,14,28,33.10
2016,08,19,14,29,33.00
2016,08,19,14,30,33.00
2016,08,19,14,31,33.00
2016,08,19,14,32,32.90
2016,08,19,14,33,32.90
2016,08,19,14,34,32.90
2016,08,19,14,35,32.90
2016,08,19,14,36,32.90
2016,08,19,14,37,32.90
2016,08,19,14,38,32.90
2016,08,19,14,39,32.90
2016,08,19,14,40,32.90
2016,08,19,14,41,33.00
2016,08,19,14,42,33.10
2016,08,19,14,43,33.10
2016,08,19,14,44,33.00
2016,08,19,14,45,33.00
2016,08,19,14,46,33.00
2016,08,19,14,47,33.00
2016,08,19,14,48,33.00
2016,08,19,14,49,33.00
2016,08,19,14,50,33.00
2016,08,19,14,51,33.00
2016,08,19,14,52,33.00
2016,08,19,14,53,33.10
2016,08,19,14,54,33.10
2016,08,19,14,55,33.10
2016,08,19,14,56,33.10
2016,08,19,14,57,33.20
2016,08,19,14,58,33.20
2016,08,19,14,59,33.30
2016,08,19,15,00,33.30
2016,08,19,15,01,33.40
2016,08,19,15,02,33.40
2016,08,19,15,03,33.40
2016,08,19,15,04,33.40
2016,08,19,15,05,33.40
2016,08,19,15,06,33.50
2016,08,19,15,07,33.50
2016,08,19,15,08,33.50
2016,08,19,15,09,33.50
2016,08,19,15,10,33.40
2016,08,19,15,11,33.40
2016,08,19,15,12,33.40
2016,08,19,15,13,33.40
2016,08,19,15,14,33.40
2016,08,19,15,15,33.40
2016,08,19,15,16,33.40
2016,08,19,15,17,33.40
2016,08,19,15,18,33.40
2016,08,19,15,19,33.40
2016,08,19,15,20,33.30
2016,08,19,15,21,33.30
2016,08,19,15,22,33.30
2016,08,19,15,23,33.30
2016,08,19,15,24,33.30
2016,08,19,15,25,33.40
2016,08,19,15,26,33.40
2016,08,19,15,27,33.50
2016,08,19,15,28,33.50
2016,08,19,15,29,33.50
2016,08,19,15,30,33.50
2016,08,19,15,31,33.50
2016,08,19,15,32,33.60
2016,08,19,15,33,33.60
2016,08,19,15,34,33.50
2016,08,19,15,35,33.40
2016,08,19,15,36,33.40
2016,08,19,15,37,33.40
2016,08,19,15,38,33.30
2016,08,19,15,39,33.20
2016,08,19,15,40,33.20
2016,08,19,15,41,33.20
2016,08,19,15,42,33.20
2016,08,19,15,43,33.20
2016,08,19,15,44,33.30
2016,08,19,15,45,33.30
2016,08,19,15,46,33.40
2016,08,19,15,47,33.50
2016,08,19,15,48,33.50
2016,08,19,15,49,33.50
2016,08,19,15,50,33.40
2016,08,19,15,51,33.30
2016,08,19,15,52,33.30
2016,08,19,15,53,33.30
2016,08,19,15,54,33.40
2016,08,19,15,55,33.40
2016,08,19,15,56,33.40
2016,08,19,15,57,33.40
2016,08,19,15,58,33.40
2016,08,19,15,59,33.40
2016,08,19,16,00,33.50
2016,08,19,16,01,33.50
2016,08,19,16,02,33.60
2016,08,19,16,03,33.60
2016,08,19,16,04,33.50
2016,08,19,16,05,33.50
2016,08,19,16,06,33.40
2016,08,19,16,07,33.40
2016,08,19,16,08,33.30
2016,08,19,16,09,33.30
2016,08,19,16,10,33.40
2016,08,19,16,11,33.40
2016,08,19,16,12,33.40
2016,08,19,16,13,33.30
2016,08,19,16,14,33.30
2016,08,19,16,15,33.20
2016,08,19,16,16,33.20
2016,08,19,16,17,33.20
2016,08,19,16,18,33.20
2016,08,19,16,19,33.30
2016,08,19,16,20,33.40
2016,08,19,16,21,33.40
2016,08,19,16,22,33.40
2016,08,19,16,23,33.40
2016,08,19,16,24,33.50
2016,08,19,16,25,33.50
2016,08,19,16,26,33.60
2016,08,19,16,27,33.60
2016,08,19,16,28,33.70
2016,08,19,16,29,33.80
2016,08,19,16,30,33.80
2016,08,19,16,31,33.90
2016,08,19,16,32,33.90
2016,08,19,16,33,34.00
2016,08,19,16,34,34.00
2016,08,19,16,35,34.10
2016,08,19,16,36,34.10
2016,08,19,16,37,34.10
2016,08,19,16,38,34.20
2016,08,19,16,39,34.20
2016,08,19,16,40,34.30
2016,08,19,16,41,34.30
2016,08,19,16,42,34.30
2016,08,19,16,43,34.40
2016,08,19,16,44,34.40
2016,08,19,16,45,34.40
2016,08,19,16,46,34.50
2016,08,19,16,47,34.50
2016,08,19,16,48,34.50
2016,08,19,16,49,34.50
2016,08,19,16,50,34.50
2016,08,19,16,51,34.50
2016,08,19,16,52,34.50
2016,08,19,16,53,34.50
2016,08,19,16,54,34.40
2016,08,19,16,55,34.40
2016,08,19,16,56,34.40
2016,08,19,16,57,34.40
2016,08,19,16,58,34.30
2016,08,19,16,59,34.30
2016,08,19,17,00,34.30
2016,08,19,17,01,34.30
2016,08,19,17,02,34.30
2016,08,19,17,03,34.20
2016,08,19,17,04,34.20
2016,08,19,17,05,34.20
2016,08,19,17,06,34.20
2016,08,19,17,07,34.20
2016,08,19,17,08,34.20
2016,08,19,17,09,34.10
2016,08,19,17,10,34.10
2016,08,19,17,11,34.00
2016,08,19,17,12,34.00
2016,08,19,17,13,33.90
2016,08,19,17,14,33.90
2016,08,19,17,15,33.90
2016,08,19,17,16,33.90
2016,08,19,17,17,33.90
2016,08,19,17,18,33.90
2016,08,19,17,19,33.90
2016,08,19,17,20,33.90
2016,08,19,17,21,33.90
2016,08,19,17,22,33.90